Regional Weather Roundup
Issued by NWS

Home | Current Version | Previous Version | Graphics & Text | Print | Product List | Glossary On
Versions: 1 2 3 4 5 6 7 8 9 10 11 12 13 14 15 16 17 18 19 20 21 22 23 24 25 26 27 28 29 30 31 32 33 34 35 36 37 38 39 40 41 42 43 44 45 46 47 48 49 50
000
ASUS43 KFSD 300802
RWRSD

WEATHER ROUNDUP FOR SOUTH DAKOTA
NATIONAL WEATHER SERVICE SIOUX FALLS SD
300 AM CDT THU OCT 30 2014

NOTE: "FAIR" INDICATES FEW OR NO CLOUDS BELOW 12,000 FEET WITH NO
SIGNIFICANT WEATHER AND/OR OBSTRUCTIONS TO VISIBILITY.


SDZ001>005-009-010-012>017-300900-
NORTHWEST AND NORTH CENTRAL SOUTH DAKOTA

CITY           SKY/WX    TMP DP  RH WIND       PRES   REMARKS
BUFFALO          N/A     37  31  78 NW14      30.06R
FAITH            N/A     42  35  76 W12       30.09R
MOBRIDGE       CLEAR     43  37  79 NW12      29.99R
$$

SDZ012>016-024>037-041>051-057-063-072>074-300900-
SOUTHWEST AND SOUTH CENTRAL SOUTH DAKOTA

CITY           SKY/WX    TMP DP  RH WIND       PRES   REMARKS
RAPID CTY ARPT CLEAR     41  32  70 NW9       30.14R
PIERRE         CLEAR     47  38  71 NW13      30.01R
CUSTER         CLEAR     44  26  49 N8        30.17S
ELLSWORTH AFB  CLEAR     40  32  73 NW10      30.13R
PHILIP         CLEAR     40  33  76 W14       30.09R
PINE RIDGE     CLEAR     36  29  75 CALM      30.16R
SPEARFISH      CLOUDY    46  32  57 W9        30.19R
WINNER         FAIR      46  31  55 W10       30.04R
$$

SDZ004>011-016>023-039-040-300900-
NORTHEAST SOUTH DAKOTA

CITY           SKY/WX    TMP DP  RH WIND       PRES   REMARKS
ABERDEEN       CLOUDY    42  36  79 CALM      29.98R
WATERTOWN      CLOUDY    43  34  70 SE6       29.96S
SISSETON         N/A     39  39 100 S5        29.98S
$$

SDZ017-020-022-023-036>040-048>070-300900-
SOUTHEAST SOUTH DAKOTA

CITY           SKY/WX    TMP DP  RH WIND       PRES   REMARKS
SIOUX FALLS    MOCLDY    46  33  60 S6        29.97S
HURON          CLEAR     38  30  73 NW6       29.97R
CHAMBERLAIN    CLEAR     41  31  68 NW9       30.02R
MITCHELL       CLEAR     42  33  70 W9        29.98R
YANKTON        CLEAR     37  30  75 CALM      29.98S
$$

ABBREVIATIONS USED IN REMARKS
   TC - TEMPERATURE IN CELSIUS
  WCI - WIND CHILL INDEX
   HX - HEAT INDEX
  VSB - VISIBILITY




USA.gov is the U.S. government's official web portal to all federal, state and local government web resources and services.